Time,TemperatureF,DewpointF,PressureIn,WindDirection,WindDirectionDegrees,WindSpeedMPH,WindSpeedGustMPH,Humidity,HourlyPrecipIn,Conditions,Clouds,dailyrainin,SoftwareType,DateUTC
2014-10-31 00:02:00,51.6,35.5,30.15,NW,315,0.0,0.0,54,0.00,,,0.00,VWS V15.00,2014-10-31 05:02:00,
2014-10-31 00:07:00,51.6,36.0,30.15,NW,315,0.0,4.0,55,0.00,,,0.00,VWS V15.00,2014-10-31 05:07:00,
2014-10-31 00:12:00,51.8,35.7,30.15,North,0,2.2,2.2,54,0.00,,,0.00,VWS V15.00,2014-10-31 05:12:00,
2014-10-31 00:17:00,51.6,36.0,30.15,NNW,338,0.0,0.0,55,0.00,,,0.00,VWS V15.00,2014-10-31 05:17:00,
2014-10-31 00:22:00,51.4,35.8,30.15,North,0,2.2,3.6,55,0.00,,,0.00,VWS V15.00,2014-10-31 05:22:00,
2014-10-31 00:27:00,51.4,35.8,30.15,NW,315,0.0,0.0,55,0.00,,,0.00,VWS V15.00,2014-10-31 05:27:00,
2014-10-31 00:32:00,51.3,35.7,30.15,NW,315,0.0,0.0,55,0.00,,,0.00,VWS V15.00,2014-10-31 05:32:00,
2014-10-31 00:37:00,51.3,36.1,30.15,NW,315,0.0,0.0,56,0.00,,,0.00,VWS V15.00,2014-10-31 05:37:00,
2014-10-31 00:42:00,51.1,36.0,30.15,NW,315,0.0,0.0,56,0.00,,,0.00,VWS V15.00,2014-10-31 05:42:00,
2014-10-31 00:47:00,50.9,35.8,30.15,NW,315,3.1,3.6,56,0.00,,,0.00,VWS V15.00,2014-10-31 05:47:00,
2014-10-31 00:52:00,50.7,35.6,30.15,NW,315,3.1,4.0,56,0.00,,,0.00,VWS V15.00,2014-10-31 05:52:00,
2014-10-31 00:57:00,50.5,35.9,30.15,NW,315,0.0,0.0,57,0.00,,,0.00,VWS V15.00,2014-10-31 05:57:00,
2014-10-31 01:02:00,50.4,35.7,30.15,NW,315,0.0,0.0,57,0.00,,,0.00,VWS V15.00,2014-10-31 06:02:00,
2014-10-31 01:07:00,50.2,35.5,30.15,NW,315,0.0,0.0,57,0.00,,,0.00,VWS V15.00,2014-10-31 06:07:00,
2014-10-31 01:12:00,50.2,36.0,30.15,NW,315,0.0,0.0,58,0.00,,,0.00,VWS V15.00,2014-10-31 06:12:00,
2014-10-31 01:17:00,49.8,35.7,30.15,NW,315,0.0,0.0,58,0.00,,,0.00,VWS V15.00,2014-10-31 06:17:00,
2014-10-31 01:22:00,49.6,35.9,30.15,North,0,0.0,0.0,59,0.00,,,0.00,VWS V15.00,2014-10-31 06:22:00,
2014-10-31 01:27:00,49.6,36.3,30.15,NW,315,5.8,5.8,60,0.00,,,0.00,VWS V15.00,2014-10-31 06:27:00,
2014-10-31 01:32:00,49.8,36.5,30.15,NW,315,3.1,3.6,60,0.00,,,0.00,VWS V15.00,2014-10-31 06:32:00,
2014-10-31 01:37:00,49.8,36.9,30.15,NW,315,0.0,3.1,61,0.00,,,0.00,VWS V15.00,2014-10-31 06:37:00,
2014-10-31 01:42:00,50.0,37.1,30.15,NE,45,4.0,4.0,61,0.00,,,0.00,VWS V15.00,2014-10-31 06:42:00,
2014-10-31 01:47:00,50.0,37.1,30.15,North,0,0.0,4.9,61,0.00,,,0.00,VWS V15.00,2014-10-31 06:47:00,
2014-10-31 01:52:00,50.0,37.1,30.15,WNW,292,0.0,0.0,61,0.00,,,0.00,VWS V15.00,2014-10-31 06:52:00,
2014-10-31 01:57:00,49.8,37.3,30.15,NW,315,3.1,3.1,62,0.00,,,0.00,VWS V15.00,2014-10-31 06:57:00,
2014-10-31 02:02:00,49.6,37.2,30.15,North,0,6.7,8.3,62,0.00,,,0.00,VWS V15.00,2014-10-31 07:02:00,
2014-10-31 02:07:00,49.6,37.6,30.15,NW,315,0.0,0.0,63,0.00,,,0.00,VWS V15.00,2014-10-31 07:07:00,
2014-10-31 02:12:00,49.5,37.4,30.15,NW,315,3.1,4.0,63,0.00,,,0.00,VWS V15.00,2014-10-31 07:12:00,
2014-10-31 02:17:00,49.5,37.8,30.15,North,0,7.6,7.6,64,0.00,,,0.00,VWS V15.00,2014-10-31 07:17:00,
2014-10-31 02:22:00,49.5,37.8,30.15,NW,315,0.0,0.0,64,0.00,,,0.00,VWS V15.00,2014-10-31 07:22:00,
2014-10-31 02:27:00,49.1,37.5,30.15,NNW,338,0.0,0.0,64,0.00,,,0.00,VWS V15.00,2014-10-31 07:27:00,
2014-10-31 02:32:00,48.9,37.7,30.15,WNW,292,0.0,5.4,65,0.00,,,0.00,VWS V15.00,2014-10-31 07:32:00,
2014-10-31 02:37:00,48.7,37.9,30.15,NNW,338,0.0,0.0,66,0.00,,,0.00,VWS V15.00,2014-10-31 07:37:00,
2014-10-31 02:42:00,48.6,38.1,30.15,West,270,0.0,2.2,67,0.00,,,0.00,VWS V15.00,2014-10-31 07:42:00,
2014-10-31 02:47:00,48.4,37.9,30.15,NW,315,0.0,4.0,67,0.00,,,0.00,VWS V15.00,2014-10-31 07:47:00,
2014-10-31 02:52:00,48.4,38.3,30.15,NW,315,2.7,4.0,68,0.00,,,0.00,VWS V15.00,2014-10-31 07:52:00,
2014-10-31 02:57:00,48.2,38.5,30.15,West,270,5.4,5.4,69,0.00,,,0.00,VWS V15.00,2014-10-31 07:57:00,
2014-10-31 03:02:00,48.2,38.5,30.15,NNW,338,3.6,4.0,69,0.00,,,0.00,VWS V15.00,2014-10-31 08:02:00,
2014-10-31 03:07:00,48.0,38.7,30.15,North,0,0.0,2.7,70,0.00,,,0.00,VWS V15.00,2014-10-31 08:07:00,
2014-10-31 03:12:00,47.8,38.9,30.15,North,0,0.0,2.7,71,0.00,,,0.00,VWS V15.00,2014-10-31 08:12:00,
2014-10-31 03:17:00,47.7,39.1,30.15,NW,315,2.2,4.9,72,0.00,,,0.00,VWS V15.00,2014-10-31 08:17:00,
2014-10-31 03:22:00,47.5,38.9,30.15,NW,315,3.6,3.6,72,0.00,,,0.00,VWS V15.00,2014-10-31 08:22:00,
2014-10-31 03:27:00,47.3,39.1,30.15,NW,315,2.7,4.0,73,0.00,,,0.00,VWS V15.00,2014-10-31 08:27:00,
2014-10-31 03:32:00,47.3,39.5,30.15,NNW,338,0.0,3.6,74,0.00,,,0.00,VWS V15.00,2014-10-31 08:32:00,
2014-10-31 03:37:00,47.3,39.8,30.15,NW,315,0.0,3.1,75,0.00,,,0.00,VWS V15.00,2014-10-31 08:37:00,
2014-10-31 03:42:00,47.3,39.8,30.15,NW,315,0.0,0.0,75,0.00,,,0.00,VWS V15.00,2014-10-31 08:42:00,
2014-10-31 03:47:00,47.3,39.8,30.15,NW,315,0.0,0.0,75,0.00,,,0.00,VWS V15.00,2014-10-31 08:47:00,
2014-10-31 03:52:00,46.9,39.8,30.15,NW,315,4.0,4.0,76,0.00,,,0.00,VWS V15.00,2014-10-31 08:52:00,
2014-10-31 03:57:00,46.9,40.1,30.15,NW,315,0.0,0.0,77,0.00,,,0.00,VWS V15.00,2014-10-31 08:57:00,
2014-10-31 04:02:00,46.9,40.1,30.15,NW,315,4.0,4.0,77,0.00,,,0.00,VWS V15.00,2014-10-31 09:02:00,
2014-10-31 04:07:00,46.9,40.5,30.15,North,0,2.2,5.4,78,0.00,,,0.00,VWS V15.00,2014-10-31 09:07:00,
2014-10-31 04:12:00,46.9,40.5,30.15,NW,315,3.1,3.1,78,0.00,,,0.00,VWS V15.00,2014-10-31 09:12:00,
2014-10-31 04:17:00,46.8,40.6,30.18,NW,315,5.4,5.8,79,0.00,,,0.00,VWS V15.00,2014-10-31 09:17:00,
2014-10-31 04:22:00,46.8,40.6,30.18,NW,315,0.0,0.0,79,0.00,,,0.00,VWS V15.00,2014-10-31 09:22:00,
2014-10-31 04:27:00,46.6,40.4,30.18,NW,315,0.0,0.0,79,0.00,,,0.00,VWS V15.00,2014-10-31 09:27:00,
2014-10-31 04:32:00,46.6,40.8,30.18,NW,315,0.0,0.0,80,0.00,,,0.00,VWS V15.00,2014-10-31 09:32:00,
2014-10-31 04:37:00,46.4,40.6,30.18,NW,315,3.6,3.6,80,0.00,,,0.00,VWS V15.00,2014-10-31 09:37:00,
2014-10-31 04:42:00,46.6,40.8,30.18,NW,315,2.7,2.7,80,0.00,,,0.00,VWS V15.00,2014-10-31 09:42:00,
2014-10-31 04:47:00,46.4,40.6,30.18,NW,315,8.3,8.3,80,0.00,,,0.00,VWS V15.00,2014-10-31 09:47:00,
2014-10-31 04:52:00,46.4,40.6,30.18,North,0,3.1,4.9,80,0.00,,,0.00,VWS V15.00,2014-10-31 09:52:00,
2014-10-31 04:57:00,46.4,40.9,30.18,NNW,338,3.6,3.6,81,0.00,,,0.00,VWS V15.00,2014-10-31 09:57:00,
2014-10-31 05:02:00,46.4,40.9,30.18,NW,315,3.6,4.0,81,0.00,,,0.00,VWS V15.00,2014-10-31 10:02:00,
2014-10-31 05:07:00,46.2,40.7,30.18,NE,45,3.6,3.6,81,0.00,,,0.00,VWS V15.00,2014-10-31 10:07:00,
2014-10-31 05:12:00,46.2,40.7,30.18,NW,315,3.6,3.6,81,0.00,,,0.00,VWS V15.00,2014-10-31 10:12:00,
2014-10-31 05:17:00,46.2,40.7,30.21,NNW,338,3.1,6.3,81,0.00,,,0.00,VWS V15.00,2014-10-31 10:17:00,
2014-10-31 05:22:00,46.2,40.7,30.21,NW,315,4.9,4.9,81,0.00,,,0.00,VWS V15.00,2014-10-31 10:22:00,
2014-10-31 05:27:00,46.2,40.7,30.21,ENE,68,2.2,2.7,81,0.00,,,0.00,VWS V15.00,2014-10-31 10:27:00,
2014-10-31 05:32:00,46.4,40.9,30.18,NW,315,4.9,7.6,81,0.00,,,0.00,VWS V15.00,2014-10-31 10:32:00,
2014-10-31 05:37:00,46.4,40.6,30.18,NW,315,5.8,7.6,80,0.00,,,0.00,VWS V15.00,2014-10-31 10:37:00,
2014-10-31 05:42:00,46.4,40.6,30.18,NW,315,0.0,4.9,80,0.00,,,0.00,VWS V15.00,2014-10-31 10:42:00,
2014-10-31 05:47:00,46.4,40.6,30.21,North,0,8.7,8.7,80,0.00,,,0.00,VWS V15.00,2014-10-31 10:47:00,
2014-10-31 05:52:00,46.6,40.4,30.21,NW,315,9.6,9.6,79,0.00,,,0.00,VWS V15.00,2014-10-31 10:52:00,
2014-10-31 05:57:00,46.8,39.9,30.21,ESE,112,2.7,5.8,77,0.00,,,0.00,VWS V15.00,2014-10-31 10:57:00,
2014-10-31 06:02:00,46.8,39.9,30.21,East,90,3.6,3.6,77,0.00,,,0.00,VWS V15.00,2014-10-31 11:02:00,
2014-10-31 06:07:00,46.8,39.6,30.21,NE,45,3.6,5.8,76,0.00,,,0.00,VWS V15.00,2014-10-31 11:07:00,
2014-10-31 06:12:00,46.8,39.6,30.21,NE,45,0.0,0.0,76,0.00,,,0.00,VWS V15.00,2014-10-31 11:12:00,
2014-10-31 06:17:00,46.8,39.6,30.21,North,0,4.9,8.3,76,0.00,,,0.00,VWS V15.00,2014-10-31 11:17:00,
2014-10-31 06:22:00,46.8,39.6,30.21,North,0,10.1,10.1,76,0.00,,,0.00,VWS V15.00,2014-10-31 11:22:00,
2014-10-31 06:27:00,46.8,39.3,30.21,North,0,5.4,5.4,75,0.00,,,0.00,VWS V15.00,2014-10-31 11:27:00,
2014-10-31 06:32:00,46.8,39.3,30.21,North,0,7.2,7.2,75,0.00,,,0.00,VWS V15.00,2014-10-31 11:32:00,
2014-10-31 06:37:00,46.6,39.1,30.21,NE,45,5.8,5.8,75,0.00,,,0.00,VWS V15.00,2014-10-31 11:37:00,
2014-10-31 06:42:00,46.6,39.4,30.21,NE,45,3.6,3.6,76,0.00,,,0.00,VWS V15.00,2014-10-31 11:42:00,
2014-10-31 06:47:00,46.6,39.4,30.24,NW,315,5.4,5.4,76,0.00,,,0.00,VWS V15.00,2014-10-31 11:47:00,
2014-10-31 06:52:00,46.8,39.6,30.24,North,0,4.9,4.9,76,0.00,,,0.00,VWS V15.00,2014-10-31 11:52:00,
2014-10-31 06:57:00,46.8,39.6,30.24,NNW,338,3.6,3.6,76,0.00,,,0.00,VWS V15.00,2014-10-31 11:57:00,
2014-10-31 07:02:00,46.9,39.8,30.24,NE,45,0.0,3.6,76,0.00,,,0.00,VWS V15.00,2014-10-31 12:02:00,
2014-10-31 07:07:00,46.9,39.8,30.24,NNE,22,4.0,4.0,76,0.00,,,0.00,VWS V15.00,2014-10-31 12:07:00,
2014-10-31 07:12:00,47.1,40.0,30.24,NW,315,5.4,8.7,76,0.00,,,0.00,VWS V15.00,2014-10-31 12:12:00,
2014-10-31 07:17:00,47.3,40.1,30.24,North,0,0.0,0.0,76,0.00,,,0.00,VWS V15.00,2014-10-31 12:17:00,
2014-10-31 07:22:00,47.1,40.0,30.24,NE,45,7.2,7.2,76,0.00,,,0.00,VWS V15.00,2014-10-31 12:22:00,
2014-10-31 07:27:00,47.3,40.1,30.24,North,0,3.6,3.6,76,0.00,,,0.00,VWS V15.00,2014-10-31 12:27:00,
2014-10-31 07:32:00,47.1,40.0,30.24,North,0,4.9,4.9,76,0.00,,,0.00,VWS V15.00,2014-10-31 12:32:00,
2014-10-31 07:37:00,47.1,40.3,30.24,NW,315,2.2,8.3,77,0.00,,,0.00,VWS V15.00,2014-10-31 12:37:00,
2014-10-31 07:42:00,47.1,40.3,30.24,NE,45,4.0,4.0,77,0.00,,,0.00,VWS V15.00,2014-10-31 12:42:00,
2014-10-31 07:47:00,47.1,40.3,30.27,NE,45,4.0,8.3,77,0.00,,,0.00,VWS V15.00,2014-10-31 12:47:00,
2014-10-31 07:52:00,47.1,40.3,30.27,NE,45,3.1,3.1,77,0.00,,,0.00,VWS V15.00,2014-10-31 12:52:00,
2014-10-31 07:57:00,47.1,40.3,30.27,North,0,7.6,7.6,77,0.00,,,0.00,VWS V15.00,2014-10-31 12:57:00,
2014-10-31 08:02:00,47.1,40.3,30.27,NNE,22,11.0,11.0,77,0.00,,,0.00,VWS V15.00,2014-10-31 13:02:00,
2014-10-31 08:07:00,47.1,40.0,30.27,NE,45,2.7,2.7,76,0.00,,,0.00,VWS V15.00,2014-10-31 13:07:00,
2014-10-31 08:12:00,47.1,40.0,30.27,North,0,0.0,5.8,76,0.00,,,0.00,VWS V15.00,2014-10-31 13:12:00,
2014-10-31 08:17:00,47.1,40.3,30.27,NW,315,2.7,2.7,77,0.00,,,0.00,VWS V15.00,2014-10-31 13:17:00,
2014-10-31 08:22:00,47.1,40.0,30.27,North,0,6.3,15.0,76,0.00,,,0.00,VWS V15.00,2014-10-31 13:22:00,
2014-10-31 08:27:00,47.3,39.8,30.27,NE,45,3.1,3.1,75,0.00,,,0.00,VWS V15.00,2014-10-31 13:27:00,
2014-10-31 08:32:00,47.3,39.8,30.30,WSW,248,3.6,7.6,75,0.00,,,0.00,VWS V15.00,2014-10-31 13:32:00,
2014-10-31 08:37:00,47.3,39.8,30.30,NW,315,2.7,4.9,75,0.00,,,0.00,VWS V15.00,2014-10-31 13:37:00,
2014-10-31 08:42:00,47.5,40.0,30.30,NE,45,8.3,8.3,75,0.00,,,0.00,VWS V15.00,2014-10-31 13:42:00,
2014-10-31 08:47:00,47.5,40.0,30.30,NNW,338,8.1,8.1,75,0.00,,,0.00,VWS V15.00,2014-10-31 13:47:00,
2014-10-31 08:52:00,47.7,39.8,30.30,NNW,338,8.1,8.1,74,0.00,,,0.00,VWS V15.00,2014-10-31 13:52:00,
2014-10-31 08:57:00,47.5,39.6,30.30,North,0,6.7,6.7,74,0.00,,,0.00,VWS V15.00,2014-10-31 13:57:00,
2014-10-31 09:02:00,47.7,39.8,30.30,North,0,8.1,8.1,74,0.00,,,0.00,VWS V15.00,2014-10-31 14:02:00,
2014-10-31 09:07:00,47.7,39.8,30.30,WNW,292,2.7,7.2,74,0.00,,,0.00,VWS V15.00,2014-10-31 14:07:00,
2014-10-31 09:12:00,47.8,40.0,30.30,North,0,4.0,5.8,74,0.00,,,0.00,VWS V15.00,2014-10-31 14:12:00,
2014-10-31 09:17:00,47.8,40.0,30.30,NNW,338,7.2,13.2,74,0.00,,,0.00,VWS V15.00,2014-10-31 14:17:00,
2014-10-31 09:22:00,47.8,39.6,30.30,NE,45,2.2,7.6,73,0.00,,,0.00,VWS V15.00,2014-10-31 14:22:00,
2014-10-31 09:27:00,48.2,40.0,30.30,North,0,7.2,7.2,73,0.00,,,0.00,VWS V15.00,2014-10-31 14:27:00,
2014-10-31 09:32:00,48.2,40.0,30.33,NW,315,4.0,7.6,73,0.00,,,0.00,VWS V15.00,2014-10-31 14:32:00,
2014-10-31 09:37:00,48.2,39.6,30.33,NW,315,5.4,8.7,72,0.00,,,0.00,VWS V15.00,2014-10-31 14:37:00,
2014-10-31 09:42:00,48.0,39.4,30.33,NE,45,4.9,10.5,72,0.00,,,0.00,VWS V15.00,2014-10-31 14:42:00,
2014-10-31 09:47:00,48.4,39.4,30.33,NE,45,4.9,4.9,71,0.00,,,0.00,VWS V15.00,2014-10-31 14:47:00,
2014-10-31 09:52:00,48.2,38.2,30.33,North,0,9.6,11.0,68,0.00,,,0.00,VWS V15.00,2014-10-31 14:52:00,
2014-10-31 09:57:00,48.4,38.3,30.33,North,0,2.2,8.1,68,0.00,,,0.00,VWS V15.00,2014-10-31 14:57:00,
2014-10-31 10:01:00,48.4,38.3,30.33,WNW,292,2.7,8.3,68,0.00,,,0.00,VWS V15.00,2014-10-31 15:01:00,
2014-10-31 10:06:00,48.4,38.7,30.33,North,0,3.6,3.6,69,0.00,,,0.00,VWS V15.00,2014-10-31 15:06:00,
2014-10-31 10:11:00,48.4,38.7,30.33,East,90,5.8,12.3,69,0.00,,,0.00,VWS V15.00,2014-10-31 15:11:00,
2014-10-31 10:16:00,48.2,38.2,30.33,North,0,3.6,8.3,68,0.00,,,0.00,VWS V15.00,2014-10-31 15:16:00,
2014-10-31 10:21:00,48.2,38.5,30.33,NW,315,0.0,4.0,69,0.00,,,0.00,VWS V15.00,2014-10-31 15:21:00,
2014-10-31 10:26:00,48.2,38.5,30.33,NE,45,5.8,9.2,69,0.00,,,0.00,VWS V15.00,2014-10-31 15:26:00,
2014-10-31 10:31:00,48.2,38.2,30.33,NW,315,7.6,7.6,68,0.00,,,0.00,VWS V15.00,2014-10-31 15:31:00,
2014-10-31 10:36:00,48.6,38.1,30.33,West,270,0.0,5.8,67,0.00,,,0.00,VWS V15.00,2014-10-31 15:36:00,
2014-10-31 10:41:00,48.6,37.7,30.33,NE,45,4.9,7.6,66,0.00,,,0.00,VWS V15.00,2014-10-31 15:41:00,
2014-10-31 10:46:00,48.9,38.1,30.33,NE,45,5.8,5.8,66,0.00,,,0.00,VWS V15.00,2014-10-31 15:46:00,
2014-10-31 10:51:00,48.9,37.7,30.33,NE,45,8.1,8.1,65,0.00,,,0.00,VWS V15.00,2014-10-31 15:51:00,
2014-10-31 10:56:00,48.7,37.1,30.33,ENE,68,6.3,8.3,64,0.00,,,0.00,VWS V15.00,2014-10-31 15:56:00,
2014-10-31 11:01:00,49.5,37.4,30.33,NW,315,5.4,8.1,63,0.00,,,0.00,VWS V15.00,2014-10-31 16:01:00,
2014-10-31 11:06:00,50.9,38.0,30.33,North,0,8.1,8.1,61,0.00,,,0.00,VWS V15.00,2014-10-31 16:06:00,
2014-10-31 11:11:00,51.1,37.3,30.33,WNW,292,8.3,9.6,59,0.00,,,0.00,VWS V15.00,2014-10-31 16:11:00,
2014-10-31 11:16:00,50.7,36.9,30.33,North,0,5.4,9.6,59,0.00,,,0.00,VWS V15.00,2014-10-31 16:16:00,
2014-10-31 11:21:00,49.6,36.3,30.33,WNW,292,5.8,6.7,60,0.00,,,0.00,VWS V15.00,2014-10-31 16:21:00,
2014-10-31 11:26:00,49.5,36.6,30.33,NW,315,2.7,8.3,61,0.00,,,0.00,VWS V15.00,2014-10-31 16:26:00,
2014-10-31 11:31:00,49.8,36.1,30.36,NE,45,5.4,11.0,59,0.00,,,0.00,VWS V15.00,2014-10-31 16:31:00,
2014-10-31 11:36:00,50.5,36.3,30.36,North,0,7.6,8.7,58,0.00,,,0.00,VWS V15.00,2014-10-31 16:36:00,
2014-10-31 11:41:00,50.5,36.3,30.36,NW,315,4.0,4.0,58,0.00,,,0.00,VWS V15.00,2014-10-31 16:41:00,
2014-10-31 11:46:00,49.6,35.0,30.36,NW,315,7.6,7.6,57,0.00,,,0.00,VWS V15.00,2014-10-31 16:46:00,
2014-10-31 11:51:00,49.5,35.3,30.36,NE,45,5.4,5.4,58,0.00,,,0.00,VWS V15.00,2014-10-31 16:51:00,
2014-10-31 11:56:00,50.4,35.7,30.36,North,0,8.7,9.2,57,0.00,,,0.00,VWS V15.00,2014-10-31 16:56:00,
2014-10-31 12:01:00,50.5,35.0,30.36,NW,315,3.6,9.6,55,0.00,,,0.00,VWS V15.00,2014-10-31 17:01:00,
2014-10-31 12:06:00,50.5,35.0,30.36,NW,315,9.6,9.6,55,0.00,,,0.00,VWS V15.00,2014-10-31 17:06:00,
2014-10-31 12:11:00,50.4,33.9,30.36,NW,315,7.6,7.6,53,0.00,,,0.00,VWS V15.00,2014-10-31 17:11:00,
2014-10-31 12:16:00,50.2,33.7,30.36,NE,45,7.6,8.3,53,0.00,,,0.00,VWS V15.00,2014-10-31 17:16:00,
2014-10-31 12:21:00,50.4,33.9,30.36,NE,45,10.1,12.8,53,0.00,,,0.00,VWS V15.00,2014-10-31 17:21:00,
2014-10-31 12:26:00,50.2,33.7,30.36,NW,315,9.6,9.6,53,0.00,,,0.00,VWS V15.00,2014-10-31 17:26:00,
2014-10-31 12:31:00,50.2,33.7,30.33,NE,45,7.6,7.6,53,0.00,,,0.00,VWS V15.00,2014-10-31 17:31:00,
2014-10-31 12:36:00,50.5,34.5,30.33,NE,45,0.0,6.7,54,0.00,,,0.00,VWS V15.00,2014-10-31 17:36:00,
2014-10-31 12:41:00,49.5,33.1,30.33,North,0,5.4,5.4,53,0.00,,,0.00,VWS V15.00,2014-10-31 17:41:00,
2014-10-31 12:46:00,50.5,34.1,30.36,NW,315,2.7,7.6,53,0.00,,,0.00,VWS V15.00,2014-10-31 17:46:00,
2014-10-31 12:51:00,49.8,32.4,30.36,NW,315,6.3,8.7,51,0.00,,,0.00,VWS V15.00,2014-10-31 17:51:00,